吉利星座1组04星 (GEESAT-1 04)

导读 | 豆包AI

GEESAT 1-04(吉利星座1组04星)是中国发射的商业遥感卫星,由时空道宇科技有限公司运营。该卫星于北京时间2022年6月2日8时成功发射,国际标识为2022-058D,目前已在轨运行超1200天。它运行在近地点约572公里、远地点约573公里的近地轨道,倾角约50度,采用三轴稳定方案,可实现全球覆盖,为商业遥感应用提供空间数据支撑。

基本信息
目录编号:
52788
目录名称:
GEESAT 1-04
国际标识:
2022-058D
轨道中心:
EARTH
卫星名称:
吉利星座1组04星
卫星全名:
吉利星座1组04星 (GEESAT-1 04)
卫星状态:
在轨 (已飞行1402 天)
发射日期:
2022-06-02 UTC
国别 :
中国 (CN)
星等 :
--
轨道信息
数据来源 国际轨道数据 AOE轨道数据
星历时间 2026-04-03T23:05:12+0800
9小时前
查看轨道信息
2026-03-29T08:00:00+0800
6天前
查看轨道信息
半长轴 7003.889km 7003.991km
偏心率 0.001015 0.0010791
轨道倾角 50.003° 50.007°
近地点辐角 223.650° 194.935°
升交点赤经 187.234° 213.212°
平近点角 136.364° 11.880°
近地点 618.643km 618.295km
远地点 632.861km 633.413km
周期 97.223分钟 97.225分钟
每日圈数 14.811325 14.811001
详细信息
平衡模式:
三轴稳定
覆盖范围:
全球
运营商:
时空道宇科技有限公司
运营商所在国:
中国
制造商(研发单位):
时空道宇科技有限公司
制造商所在国:
中国
使用方式:
暂无
卫星简介
吉利星座(GeeSAT)也称“吉利未来出行星座”,由吉利旗下时空道宇自主研发,布局硬核科技生态,赋能智慧出行、无人系统、智慧城市等领域,并将全面提升吉利控股旗下极氪、领克、远程新能源商用车等品牌的用户智能出行体验。通过“吉利未来出行星座”建设,吉利控股集团将构建天地一体化高精时空信息系统。该卫星仍在工作。
2D轨道图
3D轨道图
轨道高度分析图
轨道倾角分析图
轨道综合分析图
查看轨道综合分析图